W4OTS Weather Reports


time (UTC)temp
C
wind
direction
speed
KPH
gust
KPH
rain 1hr
cm
rain 24hr
cm
rain mn
cm
humidity
%
barometer
mb
20260906060836 22 147 0.0 0.0 0.00 0.00 0.00 96 1015.1
20260906060334 23 147 0.0 0.0 0.00 0.00 0.00 95 1015.0
20260906055830 23 147 0.0 0.0 0.00 0.00 0.00 95 1014.9
20260906055325 23 147 0.0 0.0 0.00 0.00 0.00 94 1014.3
20260906054821 23 148 0.0 0.0 0.00 0.00 0.00 94 1014.7
20260906054315 23 147 0.0 0.0 0.00 0.00 0.00 94 1015.0
20260906053812 23 147 0.0 0.0 0.00 0.00 0.00 94 1015.0
20260906053307 23 147 0.0 0.0 0.00 0.00 0.00 94 1015.0
20260906052802 23 148 0.0 0.0 0.00 0.00 0.00 94 1015.1
20260906052259 23 148 0.0 0.0 0.00 0.00 0.00 95 1015.2
20260906051756 23 148 0.0 0.0 0.00 0.00 0.00 95 1015.1
20260906051255 23 146 0.0 0.0 0.00 0.00 0.00 96 1015.4
20260906050750 23 147 0.0 0.0 0.00 0.00 0.00 96 1015.3
20260906050246 23 148 0.0 0.0 0.00 0.00 0.00 96 1015.4
20260906045744 23 148 0.0 0.0 0.00 0.00 0.00 95 1015.2
20260906045239 23 148 0.0 0.0 0.00 0.00 0.00 95 1015.3
20260906044735 23 147 0.0 0.0 0.00 0.00 0.00 95 1015.4
20260906044230 23 147 0.0 0.0 0.00 0.00 0.00 95 1015.4
20260906043726 23 147 0.0 0.0 0.00 0.00 0.00 95 1015.3
20260906043222 22 145 0.0 0.0 0.00 0.00 0.00 96 1015.3
20260906042721 22 147 0.0 0.0 0.00 0.00 0.00 97 1015.5
20260906042220 22 146 0.0 0.0 0.00 0.00 0.00 98 1015.4
20260906041716 22 148 0.0 0.0 0.00 0.00 0.00 97 1015.4
20260906041211 23 148 0.0 0.0 0.00 0.00 0.00 97 1015.4
20260906040707 23 148 0.0 0.0 0.00 0.00 0.00 97 1015.6
20260906040202 23 148 0.0 0.0 0.00 0.00 0.00 97 1015.8
20260906035657 23 148 0.0 0.0 0.00 0.00 0.00 97 1015.6
20260906035153 23 148 0.0 0.0 0.00 0.00 0.00 98 1015.6
20260906034647 23 158 0.0 0.0 0.00 0.00 0.00 98 1015.6
20260906034142 22 192 0.0 0.0 0.00 0.00 0.00 99 1015.7
20260906033638 22 211 0.0 0.0 0.00 0.00 0.00 99 1015.6
20260906033138 22 245 0.0 0.0 0.00 0.00 0.00 99 1015.6
20260906032635 22 244 0.0 0.0 0.00 0.00 0.00 99 1015.5
20260906032134 22 247 0.0 0.0 0.00 0.00 0.00 99 1015.5
20260906031630 22 242 0.0 0.0 0.00 0.00 0.00 99 1015.9
20260906031125 22 242 0.0 0.0 0.00 0.00 0.00 99 1015.5
20260906030624 23 245 0.0 0.0 0.00 0.00 0.00 99 1015.6
20260906030120 23 245 0.0 0.0 0.00 0.00 0.00 98 1015.5
20260906025619 23 245 0.0 0.0 0.00 0.00 0.00 98 1015.4
20260906025118 23 243 0.0 0.0 0.00 0.00 0.00 98 1015.5
20260906024613 23 244 0.0 0.0 0.00 0.00 0.00 97 1015.6
20260906024107 23 248 0.0 1.6 0.00 0.00 0.00 97 1015.2
20260906023603 23 248 0.0 1.6 0.00 0.00 0.00 98 1015.1
20260906023057 22 249 0.0 0.0 0.00 0.00 0.00 99 1015.3
20260906022553 22 249 0.0 0.0 0.00 0.00 0.00 98 1015.4
20260906022048 22 253 0.0 0.0 0.00 0.00 0.00 98 1015.2
20260906021544 22 258 0.0 0.0 0.00 0.00 0.00 98 1015.5
20260906021043 22 244 0.0 0.0 0.00 0.00 0.00 98 1015.2
20260906020543 23 236 0.0 0.0 0.00 0.00 0.00 97 1015.2
20260906020042 23 246 0.0 0.0 0.00 0.00 0.00 97 1015.3
20260906015541 23 251 0.0 0.0 0.00 0.00 0.00 97 1015.3
20260906015036 23 245 0.0 0.0 0.00 0.00 0.00 97 1015.3
20260906014531 23 242 0.0 0.0 0.00 0.00 0.00 97 1015.3
20260906014026 23 233 0.0 0.0 0.00 0.00 0.00 96 1015.2
20260906013522 23 246 0.0 0.0 0.00 0.00 0.00 95 1015.2
20260906013017 23 248 0.0 0.0 0.00 0.00 0.00 95 1015.3
20260906012512 23 249 0.0 0.0 0.00 0.00 0.00 94 1015.1
20260906012011 24 249 0.0 0.0 0.00 0.00 0.00 93 1015.1
20260906011508 24 250 0.0 0.0 0.00 0.00 0.00 92 1014.9
20260906011002 24 258 0.0 0.0 0.00 0.00 0.00 92 1014.9
20260906010457 24 291 1.6 1.6 0.00 0.00 0.00 92 1014.9
20260906005954 24 264 0.0 1.6 0.00 0.00 0.00 92 1014.9
20260906005453 24 261 0.0 0.0 0.00 0.00 0.00 92 1015.0
20260906004951 25 277 1.6 1.6 0.00 0.00 0.00 92 1014.9
20260906004451 25 255 0.0 0.0 0.00 0.00 0.00 91 1014.7
20260906003941 25 256 0.0 0.0 0.00 0.00 0.00 91 1014.5
20260906003436 25 244 0.0 0.0 0.00 0.00 0.00 91 1014.5
20260906002931 25 269 1.6 1.6 0.00 0.00 0.00 91 1014.5
20260906002431 25 254 0.0 0.0 0.00 0.00 0.00 91 1014.4
20260906001926 25 247 0.0 0.0 0.00 0.00 0.00 90 1014.3
20260906001421 25 246 0.0 0.0 0.00 0.00 0.00 89 1014.3
20260906000916 25 253 0.0 0.0 0.00 0.00 0.00 88 1014.5
20260906000406 25 243 0.0 0.0 0.00 0.00 0.00 87 1014.2
20260905235901 26 245 0.0 0.0 0.00 0.00 0.00 86 1014.3
20260905235355 26 244 0.0 0.0 0.00 0.00 0.00 84 1013.7
20260905234850 26 248 0.0 0.0 0.00 0.00 0.00 84 1014.1
20260905234346 26 252 0.0 0.0 0.00 0.00 0.00 83 1013.8
20260905233841 26 250 0.0 0.0 0.00 0.00 0.00 83 1013.6
20260905233336 27 255 0.0 0.0 0.00 0.00 0.00 81 1014.0
20260905232835 27 248 0.0 0.0 0.00 0.00 0.00 81 1014.0
20260905232331 27 253 0.0 0.0 0.00 0.00 0.00 80 1014.0
20260905231826 27 266 0.0 1.6 0.00 0.00 0.00 79 1013.8
20260905231321 27 249 0.0 0.0 0.00 0.00 0.00 78 1013.9
20260905230818 27 249 0.0 0.0 0.00 0.00 0.00 76 1013.9
20260905230316 28 236 0.0 0.0 0.00 0.00 0.00 77 1013.8
20260905225815 28 239 0.0 0.0 0.00 0.00 0.00 76 1014.1
20260905225310 28 254 0.0 0.0 0.00 0.00 0.00 76 1013.7
20260905224810 28 253 0.0 0.0 0.00 0.00 0.00 75 1013.6
20260905224306 28 247 0.0 0.0 0.00 0.00 0.00 75 1013.6
20260905223801 28 249 0.0 0.0 0.00 0.00 0.00 74 1013.6
20260905223258 28 247 0.0 0.0 0.00 0.00 0.00 74 1013.7
20260905222753 28 257 1.6 1.6 0.00 0.00 0.00 74 1013.6
20260905222252 28 267 1.6 1.6 0.00 0.00 0.00 75 1013.8
20260905221748 28 249 0.0 1.6 0.00 0.00 0.00 75 1013.7
20260905221245 28 247 0.0 0.0 0.00 0.00 0.00 75 1013.8
20260905220740 28 250 0.0 0.0 0.00 0.00 0.00 74 1013.5
20260905220236 28 276 3.2 3.2 0.00 0.00 0.00 73 1013.9
20260905215736 28 251 0.0 0.0 0.00 0.00 0.00 73 1013.9
20260905215232 28 246 0.0 0.0 0.00 0.00 0.00 72 1014.0
20260905214727 28 296 0.0 1.6 0.00 0.00 0.00 72 1014.2
20260905214223 28 251 0.0 0.0 0.00 0.00 0.00 73 1014.2
20260905213718 28 251 0.0 0.0 0.00 0.00 0.00 73 1014.3
20260905213214 28 278 1.6 1.6 0.00 0.00 0.00 74 1014.5
20260905212709 28 251 0.0 1.6 0.00 0.00 0.00 73 1014.6
20260905212208 28 247 0.0 0.0 0.00 0.00 0.00 73 1014.6
20260905211703 28 235 0.0 0.0 0.00 0.00 0.00 72 1014.4
20260905211158 28 317 3.2 3.2 0.00 0.00 0.00 71 1014.3
20260905210655 28 258 1.6 1.6 0.00 0.00 0.00 73 1014.2
20260905210154 27 283 1.6 1.6 0.00 0.00 0.00 75 1014.0
20260905205653 27 248 0.0 0.0 0.00 0.00 0.00 76 1014.3
20260905205153 27 247 0.0 0.0 0.00 0.00 0.00 77 1014.2
20260905204653 27 260 1.6 1.6 0.00 0.00 0.00 80 1014.5
20260905204148 26 249 0.0 0.0 0.00 0.00 0.00 80 1014.6
20260905203643 26 235 1.6 1.6 0.00 0.00 0.00 82 1014.7
20260905203138 26 223 1.6 3.2 0.00 0.00 0.00 83 1014.6
20260905202634 26 244 0.0 0.0 0.00 0.00 0.00 83 1014.7
20260905202129 26 223 1.6 1.6 0.00 0.00 0.00 85 1014.9
20260905201624 26 243 0.0 1.6 0.00 0.00 0.00 84 1014.6
20260905201124 26 245 0.0 0.0 0.00 0.00 0.00 84 1014.7
20260905200620 26 237 0.0 0.0 0.00 0.00 0.00 84 1014.9
20260905200115 26 240 0.0 1.6 0.00 0.00 0.00 83 1014.9
20260905195613 26 226 1.6 1.6 0.00 0.00 0.00 82 1014.9
20260905195108 26 228 1.6 1.6 0.00 0.00 0.00 81 1015.3
20260905194603 26 232 0.0 0.0 0.00 0.00 0.00 80 1015.0
20260905194102 27 236 0.0 1.6 0.00 0.00 0.00 79 1015.2
20260905193557 27 241 0.0 0.0 0.00 0.00 0.00 78 1015.0
20260905193052 27 333 1.6 1.6 0.00 0.00 0.00 77 1015.0
20260905192548 27 240 0.0 1.6 0.00 0.00 0.00 78 1015.2
20260905192044 27 231 1.6 1.6 0.00 0.00 0.00 76 1015.2
20260905191542 27 241 1.6 1.6 0.00 0.00 0.00 71 1015.2
20260905191042 27 245 1.6 1.6 0.00 0.00 0.00 68 1015.2
20260905190540 27 250 1.6 1.6 0.00 0.00 0.00 68 1014.7
20260905190034 27 252 0.0 0.0 0.00 0.00 0.00 69 1013.9
20260905185533 27 244 0.0 0.0 0.00 0.00 0.00 67 1014.3
20260905185032 28 225 1.6 1.6 0.00 0.00 0.00 69 1014.5
20260905184527 28 274 1.6 1.6 0.00 0.00 0.00 67 1014.5
20260905184025 28 213 0.0 1.6 0.00 0.00 0.00 63 1014.3
20260905183520 28 251 1.6 3.2 0.00 0.00 0.00 63 1014.7
20260905183015 29 228 0.0 1.6 0.00 0.00 0.00 63 1014.7
20260905182515 30 309 1.6 1.6 0.00 0.00 0.00 63 1014.7
20260905182009 30 78 3.2 8.0 0.00 0.00 0.00 68 1015.0
20260905181504 30 326 1.6 1.6 0.00 0.00 0.00 69 1014.7
20260905181003 31 271 1.6 1.6 0.00 0.00 0.00 67 1015.1
20260905180458 31 258 0.0 1.6 0.00 0.00 0.00 65 1015.2
20260905175953 32 308 3.2 3.2 0.00 0.00 0.00 64 1015.6
20260905175453 33 246 1.6 1.6 0.00 0.00 0.00 62 1015.2
20260905174949 33 283 1.6 1.6 0.00 0.00 0.00 61 1015.2
20260905174443 33 244 1.6 1.6 0.00 0.00 0.00 59 1015.4
20260905173939 34 248 3.2 3.2 0.00 0.00 0.00 58 1015.3
20260905173436 34 278 3.2 3.2 0.00 0.00 0.00 58 1015.8
20260905172931 35 247 3.2 3.2 0.00 0.00 0.00 57 1016.0
20260905172428 35 298 1.6 3.2 0.00 0.00 0.00 57 1015.8
20260905171925 35 237 0.0 0.0 0.00 0.00 0.00 57 1015.8
20260905171421 35 78 3.2 4.8 0.00 0.00 0.00 54 1015.9
20260905170917 35 224 1.6 3.2 0.00 0.00 0.00 57 1015.9
20260905170413 35 234 1.6 3.2 0.00 0.00 0.00 58 1016.0
20260905165912 35 289 3.2 3.2 0.00 0.00 0.00 58 1015.8
20260905165407 36 237 3.2 3.2 0.00 0.00 0.00 57 1016.0
20260905164903 35 316 1.6 1.6 0.00 0.00 0.00 60 1015.9
20260905164357 35 242 1.6 3.2 0.00 0.00 0.00 57 1015.9
20260905163852 35 335 3.2 3.2 0.00 0.00 0.00 55 1015.9
20260905163349 35 27 4.8 4.8 0.00 0.00 0.00 55 1016.1
20260905162844 34 293 3.2 3.2 0.00 0.00 0.00 60 1016.1
20260905162344 34 243 1.6 1.6 0.00 0.00 0.00 59 1016.3
20260905161839 34 247 0.0 0.0 0.00 0.00 0.00 61 1016.3
20260905161338 34 246 0.0 0.0 0.00 0.00 0.00 61 1016.3
20260905160836 35 244 1.6 1.6 0.00 0.00 0.00 58 1016.7
20260905160331 35 255 0.0 1.6 0.00 0.00 0.00 59 1016.4
20260905155825 34 242 1.6 3.2 0.00 0.00 0.00 60 1016.7
20260905155325 34 290 0.0 0.0 0.00 0.00 0.00 61 1016.6
20260905154819 33 258 3.2 3.2 0.00 0.00 0.00 64 1016.6
20260905154315 34 246 1.6 1.6 0.00 0.00 0.00 64 1016.7
20260905153810 34 323 0.0 0.0 0.00 0.00 0.00 64 1016.6
20260905153306 33 263 1.6 1.6 0.00 0.00 0.00 68 1016.6
20260905152800 33 168 1.6 1.6 0.00 0.00 0.00 67 1016.5
20260905152259 33 207 4.8 4.8 0.00 0.00 0.00 69 1016.7
20260905151800 33 243 0.0 1.6 0.00 0.00 0.00 74 1016.7
20260905151255 33 239 1.6 1.6 0.00 0.00 0.00 72 1016.7
20260905150750 33 228 1.6 1.6 0.00 0.00 0.00 71 1016.5
20260905150250 32 293 1.6 1.6 0.00 0.00 0.00 73 1016.6
20260905145747 32 224 0.0 1.6 0.00 0.00 0.00 74 1016.5
20260905145242 32 251 0.0 0.0 0.00 0.00 0.00 74 1016.7
20260905144741 32 175 3.2 4.8 0.00 0.00 0.00 74 1016.6
20260905144237 32 261 0.0 1.6 0.00 0.00 0.00 75 1016.6
20260905143735 31 275 1.6 1.6 0.00 0.00 0.00 77 1016.5
20260905143235 31 252 0.0 1.6 0.00 0.00 0.00 79 1016.5
20260905142733 31 196 4.8 4.8 0.00 0.00 0.00 79 1016.6
20260905142228 31 247 1.6 1.6 0.00 0.00 0.00 80 1016.7
20260905141724 30 174 1.6 1.6 0.00 0.00 0.00 81 1016.6
20260905141220 30 256 1.6 3.2 0.00 0.00 0.00 82 1016.4
20260905140715 30 182 3.2 3.2 0.00 0.00 0.00 83 1016.7
20260905140209 30 231 3.2 3.2 0.00 0.00 0.00 82 1016.6
20260905135703 30 243 0.0 1.6 0.00 0.00 0.00 84 1016.6
20260905135200 29 224 0.0 1.6 0.00 0.00 0.00 85 1016.6
20260905134659 29 242 0.0 0.0 0.00 0.00 0.00 85 1016.6
20260905134158 28 241 0.0 1.6 0.00 0.00 0.00 87 1016.8
20260905133654 27 201 1.6 1.6 0.00 0.00 0.00 88 1016.9
20260905133154 27 247 0.0 0.0 0.00 0.00 0.00 91 1016.7
20260905132653 27 250 0.0 0.0 0.00 0.00 0.00 91 1016.6
20260905132148 26 253 0.0 0.0 0.00 0.00 0.00 92 1016.9
20260905131643 26 249 0.0 0.0 0.00 0.00 0.00 92 1016.9
20260905131138 26 247 0.0 0.0 0.00 0.00 0.00 92 1016.7
20260905130633 26 247 0.0 0.0 0.00 0.00 0.00 93 1016.9
20260905130133 26 250 0.0 0.0 0.00 0.00 0.00 94 1016.8
20260905125627 25 252 0.0 0.0 0.00 0.00 0.00 95 1016.9
20260905125123 25 249 0.0 0.0 0.00 0.00 0.00 96 1016.9
20260905124619 25 251 0.0 0.0 0.00 0.00 0.00 96 1016.9
20260905124115 25 250 0.0 0.0 0.00 0.00 0.00 97 1016.9
20260905123609 25 249 0.0 0.0 0.00 0.00 0.00 98 1016.9
20260905123107 24 249 0.0 0.0 0.00 0.00 0.00 98 1016.8
20260905122601 24 249 0.0 0.0 0.00 0.00 0.00 98 1016.8
20260905122101 24 248 0.0 0.0 0.00 0.00 0.00 99 1016.7
20260905121555 23 248 0.0 0.0 0.00 0.00 0.00 99 1016.9
20260905121051 23 248 0.0 0.0 0.00 0.00 0.00 99 1016.8
20260905120550 23 248 0.0 0.0 0.00 0.00 0.00 99 1017.0
20260905120045 23 248 0.0 0.0 0.00 0.00 0.00 99 1016.9
20260905115544 23 248 0.0 0.0 0.00 0.00 0.00 99 1017.0
20260905115039 23 244 0.0 0.0 0.00 0.00 0.00 99 1016.8
20260905114538 23 245 0.0 0.0 0.00 0.00 0.00 99 1016.6
20260905114037 23 250 0.0 0.0 0.00 0.00 0.00 99 1016.6
20260905113533 22 252 0.0 0.0 0.00 0.00 0.00 99 1016.6
20260905113028 22 256 0.0 0.0 0.00 0.00 0.00 99 1016.4
20260905112523 22 252 0.0 0.0 0.00 0.00 0.00 99 1016.5
20260905112019 22 256 0.0 0.0 0.00 0.00 0.00 99 1016.3
20260905111513 22 249 0.0 0.0 0.00 0.00 0.00 99 1016.3
20260905111013 22 255 0.0 1.6 0.00 0.00 0.00 99 1016.1
20260905110512 22 264 1.6 1.6 0.00 0.00 0.00 99 1016.1
20260905110007 22 252 0.0 1.6 0.00 0.00 0.00 99 1016.2
20260905105501 22 271 1.6 1.6 0.00 0.00 0.00 99 1016.0
20260905105001 22 260 1.6 1.6 0.00 0.00 0.00 99 1016.0
20260905104457 22 254 0.0 0.0 0.00 0.00 0.00 99 1016.0
20260905103951 22 250 0.0 0.0 0.00 0.00 0.00 99 1015.9
20260905103446 23 247 0.0 0.0 0.00 0.00 0.00 99 1015.8
20260905102943 23 251 0.0 0.0 0.00 0.00 0.00 99 1016.0
20260905102438 22 256 1.6 1.6 0.00 0.00 0.00 99 1015.7
20260905101933 22 280 0.0 0.0 0.00 0.00 0.00 99 1015.8
20260905101432 22 275 0.0 0.0 0.00 0.00 0.00 99 1015.7
20260905100926 22 249 0.0 0.0 0.00 0.00 0.00 99 1015.8
20260905100422 22 250 0.0 0.0 0.00 0.00 0.00 99 1015.8
20260905095922 22 249 0.0 0.0 0.00 0.00 0.00 99 1015.8
20260905095422 22 248 0.0 0.0 0.00 0.00 0.00 99 1015.5
20260905094922 22 246 0.0 0.0 0.00 0.00 0.00 99 1015.6
20260905094418 22 250 0.0 0.0 0.00 0.00 0.00 99 1015.7
20260905093916 22 248 0.0 0.0 0.00 0.00 0.00 99 1015.8
20260905093412 22 245 0.0 0.0 0.00 0.00 0.00 99 1015.7
20260905092907 22 252 0.0 0.0 0.00 0.00 0.00 99 1015.7
20260905092402 22 249 0.0 0.0 0.00 0.00 0.00 99 1015.7
20260905091857 23 251 0.0 0.0 0.00 0.00 0.00 99 1015.5
20260905091357 23 251 0.0 0.0 0.00 0.00 0.00 99 1015.9
20260905090856 23 253 0.0 0.0 0.00 0.00 0.00 99 1015.8
20260905090352 23 256 0.0 0.0 0.00 0.00 0.00 99 1015.8
20260905085850 23 257 0.0 0.0 0.00 0.00 0.00 99 1015.7
20260905085345 23 250 0.0 0.0 0.00 0.00 0.00 99 1015.6
20260905084842 23 251 0.0 0.0 0.00 0.00 0.00 99 1015.6
20260905084340 23 252 0.0 0.0 0.00 0.00 0.00 99 1015.8
20260905083835 23 254 0.0 0.0 0.00 0.00 0.00 99 1015.8
20260905083331 23 258 0.0 0.0 0.00 0.00 0.00 99 1016.1
20260905082826 23 250 0.0 0.0 0.00 0.00 0.00 99 1015.8
20260905082322 23 246 0.0 0.0 0.00 0.00 0.00 99 1016.0
20260905081817 23 247 0.0 0.0 0.00 0.00 0.00 99 1016.0
20260905081312 23 247 0.0 0.0 0.00 0.00 0.00 99 1015.7
20260905080811 23 249 0.0 0.0 0.00 0.00 0.00 99 1015.8
20260905080306 23 248 0.0 0.0 0.00 0.00 0.00 99 1016.0
20260905075804 23 251 0.0 0.0 0.00 0.00 0.00 99 1016.2
20260905075259 23 250 0.0 0.0 0.00 0.00 0.00 99 1016.3
20260905074758 23 252 0.0 0.0 0.00 0.00 0.00 99 1016.2
20260905074254 23 249 0.0 0.0 0.00 0.00 0.00 99 1016.2
20260905073749 23 246 0.0 0.0 0.00 0.00 0.00 99 1016.3
20260905073244 23 257 0.0 0.0 0.00 0.00 0.00 99 1016.3
20260905072744 23 254 0.0 0.0 0.00 0.00 0.00 99 1016.3
20260905072239 23 258 0.0 0.0 0.00 0.00 0.00 99 1016.4
20260905071736 23 254 0.0 0.0 0.00 0.00 0.00 99 1016.6
20260905071232 23 250 0.0 0.0 0.00 0.00 0.00 99 1016.6
20260905070726 23 253 0.0 0.0 0.00 0.00 0.00 99 1016.6
20260905070223 23 250 0.0 0.0 0.00 0.00 0.00 99 1016.6
20260905065721 23 249 0.0 0.0 0.00 0.00 0.00 99 1016.6
20260905065215 23 250 0.0 0.0 0.00 0.00 0.00 99 1016.8
20260905064710 23 250 0.0 0.0 0.00 0.00 0.00 99 1016.7
20260905064206 23 250 0.0 0.0 0.00 0.00 0.00 99 1016.7
20260905063704 23 255 0.0 0.0 0.00 0.00 0.00 99 1017.0
20260905063201 23 250 0.0 0.0 0.00 0.00 0.00 99 1017.0
20260905062657 24 244 0.0 0.0 0.00 0.00 0.00 99 1016.9
20260905062156 24 249 0.0 0.0 0.00 0.00 0.00 99 1016.9
20260905061656 24 250 0.0 0.0 0.00 0.00 0.00 99 1017.0
20260905061150 24 250 0.0 0.0 0.00 0.00 0.00 99 1017.1